TimeCST,TemperatureF,Dew PointF,Humidity,Sea Level PressureIn,VisibilityMPH,Wind Direction,Wind SpeedMPH,Gust SpeedMPH,PrecipitationIn,Events,Conditions,WindDirDegrees,DateUTC
12:15 AM,42.8,33.8,70,30.32,10.0,South,5.8,-,N/A,,Clear,170,2012-11-19 06:15:00
12:35 AM,44.6,33.8,66,30.32,10.0,SSE,5.8,-,N/A,,Clear,160,2012-11-19 06:35:00
12:55 AM,44.6,33.8,66,30.31,10.0,SE,5.8,-,N/A,,Clear,130,2012-11-19 06:55:00
1:15 AM,44.6,33.8,66,30.30,10.0,SSE,5.8,-,N/A,,Clear,160,2012-11-19 07:15:00
1:35 AM,44.6,33.8,66,30.29,10.0,SE,4.6,-,N/A,,Clear,140,2012-11-19 07:35:00
1:55 AM,44.6,33.8,66,30.29,10.0,SSE,4.6,-,N/A,,Clear,160,2012-11-19 07:55:00
2:15 AM,46.4,33.8,62,30.30,10.0,Calm,Calm,-,N/A,,Clear,0,2012-11-19 08:15:00
2:35 AM,44.6,33.8,66,30.30,10.0,Calm,Calm,-,N/A,,Clear,0,2012-11-19 08:35:00
2:55 AM,46.4,33.8,62,30.30,10.0,SSE,3.5,-,N/A,,Clear,160,2012-11-19 08:55:00
3:15 AM,44.6,33.8,66,30.29,10.0,SSE,4.6,-,N/A,,Clear,150,2012-11-19 09:15:00
3:35 AM,44.6,33.8,66,30.28,10.0,South,3.5,-,N/A,,Clear,170,2012-11-19 09:35:00
3:55 AM,44.6,33.8,66,30.29,10.0,South,3.5,-,N/A,,Clear,190,2012-11-19 09:55:00
4:15 AM,44.6,33.8,66,30.28,10.0,South,5.8,-,N/A,,Clear,170,2012-11-19 10:15:00
4:35 AM,42.8,33.8,70,30.29,10.0,South,3.5,-,N/A,,Clear,180,2012-11-19 10:35:00
4:55 AM,44.6,33.8,66,30.29,10.0,SSE,3.5,-,N/A,,Clear,160,2012-11-19 10:55:00
5:15 AM,44.6,33.8,66,30.29,10.0,South,4.6,-,N/A,,Clear,190,2012-11-19 11:15:00
5:35 AM,44.6,33.8,66,30.29,10.0,South,5.8,-,N/A,,Clear,180,2012-11-19 11:35:00
5:55 AM,42.8,33.8,70,30.29,10.0,SSE,5.8,-,N/A,,Clear,160,2012-11-19 11:55:00
6:15 AM,42.8,33.8,70,30.29,7.0,Calm,Calm,-,N/A,,Clear,0,2012-11-19 12:15:00
6:35 AM,42.8,33.8,70,30.29,10.0,South,4.6,-,N/A,,Clear,190,2012-11-19 12:35:00
6:55 AM,44.6,33.8,66,30.29,10.0,South,5.8,-,N/A,,Clear,170,2012-11-19 12:55:00
7:35 AM,46.4,35.6,66,30.29,10.0,South,5.8,-,N/A,,Clear,180,2012-11-19 13:35:00
7:55 AM,46.4,35.6,66,30.30,10.0,South,4.6,-,N/A,,Clear,170,2012-11-19 13:55:00
8:15 AM,46.4,37.4,71,30.30,10.0,South,5.8,-,N/A,,Clear,170,2012-11-19 14:15:00
8:35 AM,48.2,35.6,62,30.30,10.0,South,4.6,-,N/A,,Clear,170,2012-11-19 14:35:00
8:55 AM,50.0,35.6,58,30.30,10.0,South,6.9,-,N/A,,Partly Cloudy,180,2012-11-19 14:55:00
9:15 AM,51.8,35.6,54,30.30,10.0,South,6.9,-,N/A,,Partly Cloudy,180,2012-11-19 15:15:00
9:35 AM,51.8,35.6,54,30.30,10.0,SSE,5.8,-,N/A,,Scattered Clouds,160,2012-11-19 15:35:00
9:55 AM,53.6,37.4,54,30.30,10.0,South,6.9,-,N/A,,Scattered Clouds,170,2012-11-19 15:55:00
10:15 AM,55.4,35.6,47,30.29,10.0,South,9.2,-,N/A,,Clear,190,2012-11-19 16:15:00
10:35 AM,55.4,35.6,47,30.29,10.0,South,9.2,-,N/A,,Scattered Clouds,170,2012-11-19 16:35:00
10:55 AM,55.4,37.4,51,30.28,10.0,South,6.9,-,N/A,,Mostly Cloudy,180,2012-11-19 16:55:00
11:15 AM,55.4,37.4,51,30.27,10.0,South,10.4,-,N/A,,Overcast,170,2012-11-19 17:15:00
11:35 AM,55.4,37.4,51,30.26,10.0,SSW,10.4,-,N/A,,Mostly Cloudy,200,2012-11-19 17:35:00
11:55 AM,57.2,35.6,44,30.26,10.0,SW,16.1,-,N/A,,Partly Cloudy,230,2012-11-19 17:55:00
12:15 PM,57.2,35.6,44,30.25,10.0,SSW,13.8,-,N/A,,Mostly Cloudy,200,2012-11-19 18:15:00
12:35 PM,57.2,35.6,44,30.25,10.0,SW,13.8,-,N/A,,Overcast,220,2012-11-19 18:35:00
12:55 PM,57.2,35.6,44,30.25,10.0,SSW,11.5,18.4,N/A,,Overcast,200,2012-11-19 18:55:00
1:15 PM,55.4,35.6,47,30.24,10.0,South,9.2,-,N/A,,Overcast,190,2012-11-19 19:15:00
1:35 PM,55.4,35.6,47,30.23,10.0,South,6.9,-,N/A,,Overcast,180,2012-11-19 19:35:00
1:55 PM,55.4,35.6,47,30.22,10.0,SSW,8.1,-,N/A,,Overcast,200,2012-11-19 19:55:00
2:15 PM,55.4,37.4,51,30.21,10.0,SSW,8.1,-,N/A,,Overcast,200,2012-11-19 20:15:00
2:35 PM,55.4,35.6,47,30.20,10.0,South,8.1,-,N/A,,Overcast,190,2012-11-19 20:35:00
2:55 PM,55.4,37.4,51,30.20,10.0,South,6.9,-,N/A,,Overcast,190,2012-11-19 20:55:00
3:15 PM,55.4,35.6,47,30.20,10.0,SSW,11.5,-,N/A,,Overcast,200,2012-11-19 21:15:00
3:35 PM,55.4,35.6,47,30.21,10.0,SW,6.9,-,N/A,,Overcast,220,2012-11-19 21:35:00
3:55 PM,53.6,35.6,51,30.20,10.0,South,4.6,-,N/A,,Overcast,190,2012-11-19 21:55:00
4:15 PM,53.6,35.6,51,30.20,10.0,SW,3.5,-,N/A,,Overcast,220,2012-11-19 22:15:00
4:35 PM,53.6,35.6,51,30.19,10.0,SSE,4.6,-,N/A,,Overcast,160,2012-11-19 22:35:00
4:55 PM,53.6,35.6,51,30.19,10.0,SSE,4.6,-,N/A,,Overcast,160,2012-11-19 22:55:00
5:15 PM,53.6,35.6,51,30.19,10.0,SSE,5.8,-,N/A,,Overcast,160,2012-11-19 23:15:00
5:35 PM,53.6,35.6,51,30.19,10.0,SSE,5.8,-,N/A,,Overcast,160,2012-11-19 23:35:00
5:55 PM,53.6,35.6,51,30.20,10.0,SSW,4.6,-,N/A,,Overcast,210,2012-11-19 23:55:00
6:15 PM,53.6,37.4,54,30.19,10.0,South,5.8,-,N/A,,Overcast,180,2012-11-20 00:15:00
6:35 PM,51.8,35.6,54,30.19,10.0,South,6.9,-,N/A,,Mostly Cloudy,180,2012-11-20 00:35:00
6:55 PM,51.8,35.6,54,30.19,10.0,South,6.9,-,N/A,,Mostly Cloudy,170,2012-11-20 00:55:00
7:15 PM,51.8,35.6,54,30.18,10.0,SSE,4.6,-,N/A,,Partly Cloudy,150,2012-11-20 01:15:00
7:35 PM,50.0,35.6,58,30.18,10.0,South,6.9,-,N/A,,Clear,180,2012-11-20 01:35:00
7:55 PM,50.0,35.6,58,30.18,10.0,SSW,6.9,-,N/A,,Mostly Cloudy,200,2012-11-20 01:55:00
8:15 PM,51.8,35.6,54,30.17,10.0,SSE,6.9,-,N/A,,Mostly Cloudy,160,2012-11-20 02:15:00
8:35 PM,51.8,37.4,58,30.17,10.0,SSW,3.5,-,N/A,,Mostly Cloudy,200,2012-11-20 02:35:00
8:55 PM,51.8,37.4,58,30.17,10.0,SSW,3.5,-,N/A,,Mostly Cloudy,200,2012-11-20 02:55:00
9:15 PM,51.8,37.4,58,30.17,10.0,SW,4.6,-,N/A,,Overcast,220,2012-11-20 03:15:00
9:35 PM,50.0,35.6,58,30.16,10.0,South,5.8,-,N/A,,Scattered Clouds,170,2012-11-20 03:35:00
9:55 PM,48.2,35.6,62,30.16,10.0,South,4.6,-,N/A,,Clear,190,2012-11-20 03:55:00
10:15 PM,48.2,35.6,62,30.16,10.0,Calm,Calm,-,N/A,,Clear,0,2012-11-20 04:15:00
10:35 PM,48.2,35.6,62,30.16,10.0,Calm,Calm,-,N/A,,Partly Cloudy,0,2012-11-20 04:35:00
10:55 PM,50.0,35.6,58,30.16,10.0,South,3.5,-,N/A,,Partly Cloudy,180,2012-11-20 04:55:00
11:15 PM,50.0,37.4,62,30.16,10.0,South,5.8,-,N/A,,Partly Cloudy,190,2012-11-20 05:15:00
11:35 PM,48.2,37.4,66,30.16,10.0,South,3.5,-,N/A,,Scattered Clouds,170,2012-11-20 05:35:00
11:55 PM,50.0,37.4,62,30.16,10.0,South,4.6,-,N/A,,Overcast,190,2012-11-20 05:55:00